Regional Weather Roundup
Issued by NWS Cleveland, OH

Home | Current Version | Previous Version | Graphics & Text | Print | Product List | Glossary On
Versions: 1 2 3 4 5 6 7 8 9 10 11 12 13 14 15 16 17 18 19 20 21 22 23 24 25 26 27 28 29 30 31 32 33 34 35 36 37 38 39 40 41 42 43 44 45 46 47 48 49 50
000
ASUS41 KCLE 250610
RWRCLE
OHIO REGIONAL WEATHER ROUNDUP
NATIONAL WEATHER SERVICE CLEVELAND, OH
100 AM EST SUN FEB 25 2018

NOTE: "FAIR" INDICATES FEW OR NO CLOUDS BELOW 12,000 FEET WITH NO
SIGNIFICANT WEATHER AND/OR OBSTRUCTIONS TO VISIBILITY.

OHZ001>008-015>018-024>027-034-035-043-044-250700-
   NORTHWEST OHIO

CITY           SKY/WX    TMP DP  RH WIND       PRES   REMARKS
DEFIANCE       CLOUDY    45  43  93 E8        29.60F
FINDLAY        LGT RAIN  50  46  86 SE24G39   29.57F
TOLEDO EXPRESS CLOUDY    42  42 100 E9        29.63F FOG
TOLEDO EXEC    CLOUDY    41  39  93 E13       29.64F FOG
LIMA           LGT RAIN  51  51 100 SE20G30   29.57F
$$

OHZ009>014-019>023-028>033-038-089-250700-
   NORTHEAST OHIO

CITY           SKY/WX    TMP DP  RH WIND       PRES   REMARKS
CLE-HOPKINS    LGT RAIN  49  47  93 SE10      29.78F
CLE-LAKEFRONT  LGT RAIN  48  44  86 SE10      29.75F
CUY CO. ARPT   NOT AVBL
LORAIN-ELYRIA  LGT RAIN  46  42  86 SE7       29.75F
ASHTABULA      CLOUDY    46  45  96 SE10      29.83F
AKRON-CANTON   LGT RAIN  48  45  89 SE7       29.79F FOG
WOOSTER        RAIN      47  46  97 SE14      29.75F FOG
MANSFIELD      LGT RAIN  48  48 100 SE10      29.74F FOG
YOUNGSTOWN     LGT RAIN  46  45  96 SE10      29.82F FOG
$$

OHZ042-051>053-060>062-070>072-077>081-250700-
  SOUTHWEST OHIO

CITY           SKY/WX    TMP DP  RH WIND       PRES   REMARKS
CINC-COVINGTON RAIN      57  56  96 S17       29.71F
CINC-LUNKEN    RAIN      58  57  97 S15       29.75S
HAMILTON       LGT RAIN  53  52  96 S5        29.72F
DAYTON         LGT RAIN  50  50 100 SE9       29.64F FOG
WRIGHT-PAT AFB LGT RAIN  51  51  97 E17       29.62F
DAYTON GENERAL LGT RAIN  53  51  93 E8        29.66F
WILMINGTON     LGT RAIN  58  58 100 SW22G30   29.73R
$$

OHZ036-037-039>041-045>050-054>059-063>069-073>076-082>088-250700-
  CENTRAL AND SOUTHEAST OHIO

CITY           SKY/WX    TMP DP  RH WIND       PRES   REMARKS
COLUMBUS       RAIN      54  53  97 SE14      29.70F FOG
OSU AIRPORT    LGT RAIN  52  52 100 S7        29.70F FOG
BOLTON FIELD   RAIN      52  52 100 S8        29.72F
RICKENBACK AFB CLOUDY    53  53 100 S12       29.70F
NEWARK         LGT RAIN  52  51  97 S6        29.74F
MARION         HVY RAIN  49  49 100 SE5       29.72F FOG
LANCASTER      LGT RAIN  53  53 100 SE13G22   29.74F
ZANESVILLE     LGT RAIN  53  50  89 SE10      29.78F
NEW PHILLY     NOT AVBL
$$



USA.gov is the U.S. government's official web portal to all federal, state and local government web resources and services.